TimePDT,TemperatureF,Dew PointF,Humidity,Sea Level PressureIn,VisibilityMPH,Wind Direction,Wind SpeedMPH,Gust SpeedMPH,PrecipitationIn,Events,Conditions,WindDirDegrees,DateUTC
12:53 AM,62.1,30.9,31,29.95,10.0,West,8.1,-,N/A,,Clear,270,2013-08-21 07:53:00
1:53 AM,64.0,30.0,28,29.94,10.0,West,8.1,-,N/A,,Clear,270,2013-08-21 08:53:00
2:53 AM,52.0,30.0,43,29.96,10.0,North,3.5,-,N/A,,Clear,350,2013-08-21 09:53:00
3:53 AM,52.0,30.0,43,29.97,10.0,Calm,Calm,-,N/A,,Partly Cloudy,0,2013-08-21 10:53:00
4:53 AM,50.0,33.1,52,29.98,10.0,Calm,Calm,-,N/A,,Clear,0,2013-08-21 11:53:00
5:53 AM,46.9,32.0,56,29.99,10.0,North,3.5,-,N/A,,Clear,350,2013-08-21 12:53:00
6:53 AM,52.0,32.0,47,29.99,10.0,WSW,5.8,-,N/A,,Clear,250,2013-08-21 13:53:00
7:53 AM,62.1,35.1,37,29.99,10.0,WSW,4.6,-,N/A,,Clear,240,2013-08-21 14:53:00
8:53 AM,70.0,33.1,26,29.99,10.0,Calm,Calm,-,N/A,,Clear,0,2013-08-21 15:53:00
9:53 AM,75.9,32.0,20,29.98,10.0,East,3.5,-,N/A,,Clear,100,2013-08-21 16:53:00
10:53 AM,79.0,34.0,20,29.98,10.0,SE,5.8,-,N/A,,Clear,130,2013-08-21 17:53:00
11:53 AM,80.1,35.1,20,29.99,10.0,SSW,4.6,-,N/A,,Clear,210,2013-08-21 18:53:00
12:53 PM,84.9,39.0,20,29.98,10.0,ESE,8.1,17.3,N/A,,Clear,120,2013-08-21 19:53:00
1:53 PM,87.1,39.9,19,29.97,10.0,ESE,10.4,-,N/A,,Clear,110,2013-08-21 20:53:00
2:53 PM,88.0,42.1,20,29.97,10.0,ENE,9.2,-,N/A,,Clear,70,2013-08-21 21:53:00
3:53 PM,87.1,42.1,21,29.95,10.0,ESE,15.0,18.4,N/A,,Clear,120,2013-08-21 22:53:00
4:53 PM,87.1,43.0,21,29.94,10.0,East,8.1,-,N/A,,Clear,90,2013-08-21 23:53:00
5:53 PM,84.0,44.1,25,29.95,10.0,ESE,8.1,-,N/A,,Clear,110,2013-08-22 00:53:00
6:53 PM,82.9,46.0,27,29.93,10.0,SE,4.6,-,N/A,,Clear,130,2013-08-22 01:53:00
7:53 PM,72.0,48.0,43,29.94,10.0,South,6.9,-,N/A,,Clear,170,2013-08-22 02:53:00
8:53 PM,66.0,45.0,47,29.96,10.0,West,3.5,-,N/A,,Clear,280,2013-08-22 03:53:00
9:53 PM,66.0,46.9,50,29.96,10.0,North,6.9,-,N/A,,Clear,350,2013-08-22 04:53:00
10:53 PM,68.0,46.0,45,29.97,10.0,SSW,8.1,-,N/A,,Partly Cloudy,200,2013-08-22 05:53:00
11:53 PM,69.1,48.0,47,29.97,10.0,SW,8.1,-,N/A,,Clear,220,2013-08-22 06:53:00